Content
SEND FEEDBACK

Daily
Averages
Monthly
Summary
United States of America

CHICAGO, ILLINOIS


Home > North America > United States > Illinois
Elevation: 674 feet     Latitude: 41 59N     Longitude: 087 54W

WEATHER
 
SELECT A DAY
Number of Records: 194,962;   Date Range: 7/8/95 - 8/12/14
 
SHARE

PRINT THIS DATA

[ ← Previous Day ]
WEATHER ALMANAC - JULY 23, 2013
[ Next Day → ]
[ °C ]   °F
Weather ElementAverageHighLow
Temperature71.2 °F75.9 °F (10:52 am)63 °F (11:52 pm)
Dewpoint59.6 °F64.4 °F (9:24 am)55 °F (6:52 pm)
Humidity67.1 %76 % (1:52 am)57 % (2:52 pm)
Barometer29.84 in29.99 in (10:52 pm)29.69 in (1:52 am)
Wind Speed7.7 mph17.3 mph (6:52 pm)
Wind Gust23 mph (6:52 pm)
Weather ElementAverage
Visibility10 mi
Wind DirectionSSE (148.1 °)

Weather ElementTotal
Precipitation0.03 in
Cooling Degree Days4.5 (Base 65)
Growing Degree Days19.5 (Base 50)
Averaged from 26 records on July 23, 2013
WEATHER CONDITIONS BREAKOUT
WIND DIRECTION BREAKOUT
WEATHER BY HOUR - JULY 23, 2013
[ °C ]   °F
Local TimeTemperatureDewpointHumidityBarometerVisibilityWind DirectionWind SpeedGust SpeedPrecipitationEventsConditions
1:52 AM72.0 °F64.0 °F76 %29.69 in10.0 miSouth (170°)3.5 mph0.03 inMostly Cloudy
2:52 AM73.0 °F61.0 °F66 %29.70 in10.0 miWest (270°)4.6 mphPartly Cloudy
3:52 AM72.0 °F61.0 °F68 %29.70 in10.0 miCalmClear
4:52 AM70.0 °F61.0 °F73 %29.73 in10.0 miCalmClear
5:52 AM69.1 °F61.0 °F75 %29.76 in10.0 miCalmClear
6:52 AM71.1 °F61.0 °F70 %29.77 in10.0 miWest (280°)6.9 mphClear
7:52 AM73.0 °F63.0 °F71 %29.77 in10.0 miNW (320°)5.8 mphScattered Clouds
8:01 AM71.6 °F62.6 °F73 %29.79 in10.0 miNW (310°)6.9 mphMostly Cloudy
8:52 AM73.9 °F64.0 °F71 %29.80 in10.0 miNorth (350°)6.9 mphMostly Cloudy
9:24 AM73.4 °F64.4 °F73 %29.81 in10.0 miNorth (350°)9.2 mphMostly Cloudy
9:52 AM73.0 °F62.1 °F68 %29.81 in10.0 miNorth (360°)9.2 mphOvercast
10:42 AM75.2 °F60.8 °F61 %29.84 in10.0 miNorth (350°)8.1 mphOvercast
10:52 AM75.9 °F60.1 °F58 %29.83 in10.0 miNNW (340°)6.9 mphMostly Cloudy
11:52 AM73.9 °F59.0 °F59 %29.84 in10.0 miNNE (20°)8.1 mphOvercast
12:52 PM75.0 °F60.1 °F60 %29.85 in10.0 miENE (60°)8.1 mphMostly Cloudy
1:52 PM75.0 °F60.1 °F60 %29.86 in10.0 miNNE (30°)5.8 mphPartly Cloudy
2:52 PM75.0 °F59.0 °F57 %29.87 in10.0 miNE (40°)10.4 mph16.1 mphScattered Clouds
3:52 PM73.9 °F60.1 °F62 %29.88 in10.0 miNE (40°)13.8 mphMostly Cloudy
4:52 PM71.1 °F57.9 °F63 %29.88 in10.0 miNE (40°)15.0 mph21.9 mphMostly Cloudy
5:52 PM70.0 °F55.9 °F61 %29.90 in10.0 miNNE (20°)13.8 mph21.9 mphClear
6:52 PM69.1 °F55.0 °F61 %29.91 in10.0 miNE (40°)17.3 mph23.0 mphClear
7:52 PM66.9 °F55.9 °F68 %29.91 in10.0 miNNE (30°)13.8 mph21.9 mphPartly Cloudy
8:52 PM64.9 °F55.9 °F73 %29.94 in10.0 miNNE (30°)10.4 mphClear
9:52 PM64.9 °F55.0 °F70 %29.96 in10.0 miNNE (30°)6.9 mphClear
10:52 PM64.0 °F55.0 °F73 %29.99 in10.0 miNorth (10°)4.6 mphClear
11:52 PM63.0 °F55.0 °F75 %29.99 in10.0 miNorth (360°)4.6 mphPartly Cloudy
Hourly data recorded from KPWK, located miles away from Chicago, Illinois







STORIES FROM OUR PARTNERS